When you browse on this site, cookies collect data to enhance your experience and personalize the content and advertising you see.
Visit our Privacy Policy to learn more. By continuing to use the site, you agree to this use of cookies and data.

Hourly Weather Bielawy

Today, 9 July, Thursday

Time Temperature Precipitation Wind Pressure Humidity
00:00 +9°C° 0 mm 2 mps 748 mmHg 93%
01:00 +9°C° 0 mm 2 mps 748 mmHg 94%
02:00 +9°C° 0 mm 2 mps 748 mmHg 93%
03:00 +8°C° 0 mm 2 mps 748 mmHg 93%
04:00 +9°C° 0 mm 1 mps 748 mmHg 93%
05:00 +10°C° 0 mm 2 mps 748 mmHg 89%
06:00 +13°C° 0 mm 2 mps 748 mmHg 84%
07:00 +14°C° 0 mm 2 mps 749 mmHg 79%
08:00 +16°C° 0.1 mm 3 mps 749 mmHg 74%
09:00 +17°C° 0.1 mm 3 mps 749 mmHg 68%
10:00 +18°C° 0.1 mm 3 mps 749 mmHg 63%
11:00 +19°C° 0.2 mm 4 mps 749 mmHg 63%
12:00 +19°C° 0.2 mm 4 mps 748 mmHg 62%
13:00 +20°C° 0.2 mm 4 mps 748 mmHg 62%
14:00 +20°C° 0.2 mm 4 mps 748 mmHg 64%
15:00 +20°C° 0.2 mm 4 mps 747 mmHg 65%
16:00 +20°C° 0.2 mm 4 mps 747 mmHg 66%
17:00 +18°C° 0.6 mm 4 mps 747 mmHg 75%
18:00 +17°C° 0.6 mm 3 mps 746 mmHg 83%
19:00 +16°C° 0.6 mm 3 mps 746 mmHg 92%
20:00 +14°C° 0.5 mm 4 mps 745 mmHg 93%
21:00 +14°C° 0.5 mm 5 mps 745 mmHg 93%
22:00 +14°C° 0.5 mm 5 mps 745 mmHg 94%
23:00 +15°C° 0.2 mm 5 mps 744 mmHg 94%

Tomorrow, 10 July, Friday

Time Temperature Precipitation Wind Pressure Humidity
00:00 +15°C° 0.2 mm 5 mps 744 mmHg 95%
01:00 +15°C° 0.2 mm 5 mps 744 mmHg 95%
02:00 +15°C° 0.1 mm 5 mps 743 mmHg 95%
03:00 +15°C° 0.1 mm 5 mps 743 mmHg 96%
04:00 +15°C° 0.1 mm 5 mps 743 mmHg 96%
05:00 +16°C° 0 mm 5 mps 743 mmHg 94%
06:00 +17°C° 0 mm 5 mps 743 mmHg 92%
07:00 +17°C° 0 mm 5 mps 744 mmHg 89%
08:00 +19°C° 0.1 mm 5 mps 744 mmHg 86%
09:00 +20°C° 0.1 mm 5 mps 744 mmHg 82%
10:00 +21°C° 0.1 mm 5 mps 744 mmHg 79%
11:00 +21°C° 0.2 mm 5 mps 744 mmHg 76%
12:00 +22°C° 0.2 mm 5 mps 744 mmHg 73%
13:00 +23°C° 0.2 mm 4 mps 744 mmHg 70%
14:00 +23°C° 0.3 mm 4 mps 744 mmHg 71%
15:00 +24°C° 0.3 mm 3 mps 743 mmHg 73%
16:00 +24°C° 0.3 mm 3 mps 743 mmHg 74%
17:00 +22°C° 0.7 mm 3 mps 743 mmHg 78%
18:00 +22°C° 0.7 mm 3 mps 742 mmHg 83%
19:00 +22°C° 0.7 mm 4 mps 742 mmHg 87%
20:00 +21°C° 0.4 mm 4 mps 742 mmHg 89%
21:00 +20°C° 0.4 mm 4 mps 743 mmHg 91%
22:00 +19°C° 0.4 mm 4 mps 743 mmHg 94%
23:00 +18°C° 0 mm 4 mps 744 mmHg 94%

Day after tomorrow, 11 July, Saturday

Time Temperature Precipitation Wind Pressure Humidity
00:00 +17°C° 0 mm 4 mps 744 mmHg 95%
01:00 +16°C° 0 mm 5 mps 745 mmHg 95%
02:00 +15°C° 0 mm 5 mps 745 mmHg 95%
03:00 +14°C° 0 mm 4 mps 746 mmHg 95%
04:00 +13°C° 0 mm 4 mps 747 mmHg 95%
05:00 +13°C° 0 mm 4 mps 747 mmHg 91%
06:00 +14°C° 0 mm 3 mps 748 mmHg 88%
07:00 +14°C° 0 mm 3 mps 748 mmHg 84%
08:00 +16°C° 0 mm 3 mps 749 mmHg 80%
09:00 +16°C° 0 mm 3 mps 749 mmHg 75%
10:00 +17°C° 0 mm 3 mps 750 mmHg 71%
11:00 +17°C° 0.2 mm 2 mps 750 mmHg 70%
12:00 +17°C° 0.2 mm 2 mps 751 mmHg 69%
13:00 +17°C° 0.2 mm 2 mps 751 mmHg 68%
14:00 +17°C° 0.1 mm 2 mps 751 mmHg 67%
15:00 +17°C° 0.1 mm 2 mps 751 mmHg 67%
16:00 +17°C° 0.1 mm 2 mps 751 mmHg 66%
17:00 +17°C° 0 mm 2 mps 751 mmHg 71%
18:00 +16°C° 0 mm 2 mps 751 mmHg 75%
19:00 +15°C° 0 mm 2 mps 751 mmHg 80%
20:00 +15°C° 0 mm 2 mps 752 mmHg 82%
21:00 +14°C° 0 mm 2 mps 752 mmHg 83%
22:00 +13°C° 0 mm 2 mps 752 mmHg 85%
23:00 +13°C° 0 mm 1 mps 752 mmHg 86%

12 July, Sunday

Time Temperature Precipitation Wind Pressure Humidity
00:00 +12°C° 0 mm 1 mps 752 mmHg 88%
01:00 +12°C° 0 mm 1 mps 752 mmHg 89%
02:00 +11°C° 0 mm 1 mps 752 mmHg 88%
03:00 +10°C° 0 mm 2 mps 752 mmHg 87%
04:00 +10°C° 0 mm 2 mps 752 mmHg 86%
05:00 +12°C° 0 mm 2 mps 752 mmHg 82%
06:00 +12°C° 0 mm 3 mps 752 mmHg 78%
07:00 +13°C° 0 mm 3 mps 752 mmHg 74%
08:00 +14°C° 0 mm 3 mps 752 mmHg 70%
09:00 +16°C° 0 mm 3 mps 752 mmHg 65%
10:00 +17°C° 0 mm 4 mps 752 mmHg 60%
11:00 +18°C° 0 mm 3 mps 752 mmHg 59%
12:00 +18°C° 0 mm 3 mps 752 mmHg 58%
13:00 +18°C° 0 mm 3 mps 752 mmHg 57%
14:00 +18°C° 0.2 mm 3 mps 752 mmHg 60%
15:00 +18°C° 0.2 mm 3 mps 752 mmHg 63%
16:00 +18°C° 0.2 mm 3 mps 752 mmHg 67%
17:00 +17°C° 0.2 mm 2 mps 752 mmHg 72%
18:00 +16°C° 0.2 mm 2 mps 752 mmHg 77%
19:00 +15°C° 0.2 mm 2 mps 752 mmHg 83%
20:00 +14°C° 0 mm 2 mps 752 mmHg 85%
21:00 +13°C° 0 mm 2 mps 752 mmHg 88%
22:00 +12°C° 0 mm 2 mps 752 mmHg 90%
23:00 +12°C° 0 mm 1 mps 752 mmHg 91%

13 July, Monday

Time Temperature Precipitation Wind Pressure Humidity
00:00 +11°C° 0 mm 1 mps 752 mmHg 92%
01:00 +11°C° 0 mm 1 mps 751 mmHg 92%
02:00 +10°C° 0 mm 2 mps 751 mmHg 93%
03:00 +9°C° 0 mm 2 mps 751 mmHg 93%
04:00 +9°C° 0 mm 2 mps 751 mmHg 93%
05:00 +10°C° 0 mm 2 mps 751 mmHg 90%
06:00 +13°C° 0 mm 2 mps 750 mmHg 87%
07:00 +14°C° 0 mm 2 mps 750 mmHg 84%
08:00 +14°C° 0.1 mm 3 mps 750 mmHg 77%
09:00 +17°C° 0.1 mm 3 mps 750 mmHg 69%
10:00 +19°C° 0.1 mm 3 mps 750 mmHg 61%
11:00 +19°C° 0.1 mm 3 mps 750 mmHg 59%
12:00 +20°C° 0.1 mm 3 mps 749 mmHg 57%
13:00 +21°C° 0.1 mm 3 mps 749 mmHg 56%
14:00 +21°C° 0.1 mm 4 mps 749 mmHg 57%
15:00 +21°C° 0.1 mm 4 mps 749 mmHg 59%
16:00 +20°C° 0.1 mm 5 mps 748 mmHg 61%
17:00 +19°C° 0.1 mm 4 mps 748 mmHg 66%
18:00 +18°C° 0.1 mm 4 mps 748 mmHg 71%
19:00 +15°C° 0.1 mm 4 mps 748 mmHg 76%
20:00 +14°C° 0 mm 3 mps 748 mmHg 81%
21:00 +12°C° 0 mm 3 mps 748 mmHg 86%
22:00 +11°C° 0 mm 3 mps 748 mmHg 92%
23:00 +11°C° 0 mm 3 mps 748 mmHg 92%

14 July, Tuesday

Time Temperature Precipitation Wind Pressure Humidity
00:00 +11°C° 0 mm 3 mps 748 mmHg 93%
01:00 +10°C° 0 mm 3 mps 748 mmHg 94%
02:00 +10°C° 0 mm 3 mps 748 mmHg 94%
03:00 +10°C° 0 mm 3 mps 748 mmHg 95%
04:00 +10°C° 0 mm 3 mps 748 mmHg 95%
05:00 +11°C° 0 mm 3 mps 748 mmHg 89%
06:00 +13°C° 0 mm 4 mps 748 mmHg 83%
07:00 +15°C° 0 mm 4 mps 748 mmHg 77%
08:00 +17°C° 0 mm 4 mps 748 mmHg 71%
09:00 +18°C° 0 mm 4 mps 748 mmHg 66%
10:00 +20°C° 0 mm 4 mps 748 mmHg 60%
11:00 +20°C° 0.1 mm 4 mps 748 mmHg 58%
12:00 +21°C° 0.1 mm 4 mps 747 mmHg 56%
13:00 +22°C° 0.1 mm 5 mps 747 mmHg 53%
14:00 +21°C° 0 mm 5 mps 747 mmHg 55%
15:00 +21°C° 0 mm 5 mps 747 mmHg 57%
16:00 +21°C° 0 mm 5 mps 747 mmHg 59%
17:00 +19°C° 0 mm 5 mps 747 mmHg 66%
18:00 +18°C° 0 mm 4 mps 747 mmHg 74%
19:00 +17°C° 0 mm 3 mps 747 mmHg 81%
20:00 +14°C° 0 mm 3 mps 747 mmHg 85%
21:00 +13°C° 0 mm 3 mps 747 mmHg 89%
22:00 +12°C° 0 mm 3 mps 747 mmHg 94%
23:00 +11°C° 0 mm 3 mps 747 mmHg 93%
Show more